AirNav   ProFlight Series 2 Aviation Headset
 
 841 users online  

2R5 St Elmo Airport
St Elmo, Alabama, USA

GOING TO ST ELMO?


FAA INFORMATION EFFECTIVE 08 OCTOBER 2020

Location

FAA Identifier: 2R5
Lat/Long: 30-30-06.9000N 088-16-30.4000W
30-30.115000N 088-16.506667W
30.5019167,-88.2751111
(estimated)
Elevation: 132.4 ft. / 40.4 m (surveyed)
Variation: 00E (2000)
From city: 2 miles W of ST ELMO, AL
Time zone: UTC -5 (UTC -6 during Standard Time)
Zip code: 36541

Airport Operations

Airport use: Open to the public
Activation date: 03/1945
Control tower: no
ARTCC: HOUSTON CENTER
FSS: ANNISTON FLIGHT SERVICE STATION
NOTAMs facility: ANB (NOTAM-D service available)
Attendance: UNATNDD
Wind indicator: lighted
Segmented circle: yes
Lights: ACTVT MIRL RWY 06/24 - CTAF.
Beacon: white-green (lighted land airport)
Operates sunset to sunrise.

Airport Communications

CTAF: 122.9
MOBILE APPROACH: 121.0
MOBILE DEPARTURE: 121.0
WX ASOS at MOB (11 nm N): 124.75 (251-607-0469)
WX ASOS at BFM (13 nm NE): PHONE 251-431-6762
WX ASOS at PQL (13 nm W): 135.175 (228-474-2836)
  • APCH/DEP SVC PRVDD BY HOUSTON ARTCC ON FREQS 127.65/285.475 (MOBILE RCAG) WHEN MOBILE APCH CTL CLSD.

Nearby radio navigation aids

VOR radial/distance  VOR name  Freq  Var
BFMr236/13.2BROOKLEY VORTAC112.8004E
SJIr157/14.1SEMMES VORTAC115.3005E
GCVr158/37.4GREENE COUNTY VORTAC115.7005E

 
NDB name  Hdg/Dist  Freq  Var  ID
WISLE176/15.624801WMOB -- --- -...

Airport Services

Fuel available: 100LL JET-A+
FUEL 24 HR CREDIT CARD SVC AVBL.
FUEL 24 HR CREDIT CARD SVC AVBL.
Parking: tiedowns
Airframe service: NONE
Powerplant service: NONE
Bottled oxygen: NONE
Bulk oxygen: NONE

Runway Information

Runway 6/24

Dimensions: 3998 x 80 ft. / 1219 x 24 m
Surface: asphalt, in good condition
Weight bearing capacity: 
Single wheel: 23.0
Runway edge lights: medium intensity
RUNWAY 6  RUNWAY 24
Latitude: 30-29.946905N30-30.282302N
Longitude: 088-16.835212W088-16.179477W
Elevation: 129.3 ft.131.0 ft.
Traffic pattern: leftleft
Runway heading: 059239
Markings: nonprecision, in good conditionnonprecision, in good condition
Touchdown point: yes, no lightsyes, no lights
Obstructions: 57 ft. trees, 1524 ft. from runway, 17 ft. right of centerline, 23:1 slope to clearnone

Airport Ownership and Management from official FAA records

Ownership: Publicly-owned
Owner: STATE OF ALABAMA
1409 COLISEUM BLVD
MONTGOMERY, AL 36130
Phone 334-242-6820
Manager: CHRIS CURRY
1891 NINTH STREET
MOBILE, AL 36615
Phone 251-438-7334
MOBILE AIRPORT AUTHORITY

Airport Operational Statistics

Aircraft based on the field: 23
Single engine airplanes: 22
Jet airplanes: 1
    
Aircraft operations: avg 56/day *
61% transient general aviation
39% local general aviation
* for 12-month period ending 31 May 2019

Additional Remarks

FOR CD CTC MOBILE APCH AT 251-662-6236, WHEN APCH CLSD CTC HOUSTON ARTCC AT 281-230-5622.

Instrument Procedures

NOTE: All procedures below are presented as PDF files. If you need a reader for these files, you should download the free Adobe Reader.

NOT FOR NAVIGATION. Please procure official charts for flight.
FAA instrument procedures published for use from 08 October 2020 at 0901Z to 05 November 2020 at 0900Z.

 
IAPs - Instrument Approach Procedures
RNAV (GPS) RWY 06   download (219KB)
NOTE: Special Take-Off Minimums/Departure Procedures apply   download (189KB)

Other nearby airports with instrument procedures:

KMOB - Mobile Regional Airport (11 nm N)
KBFM - Mobile Downtown Airport (13 nm NE)
KPQL - Trent Lott International Airport (13 nm W)
KCQF - H L Sonny Callahan Airport (21 nm E)
5R4 - Foley Municipal Airport (30 nm E)
 
Loc | Ops | Rwys | IFR | FBO | Links
Com | Nav | Svcs | Stats | Notes

Continental Services
AirBoss

 
Area around 2R5 (St Elmo Airport)
 
Road maps at: MapQuest Bing Google
 
Aerial photo
WARNING: Photo may not be current or correct
Aerial photo of 2R5 (St Elmo Airport)
Photo taken 25-Aug-2006

Do you have a better or more recent aerial photo of St Elmo Airport that you would like to share? If so, please send us your photo.

 
Sectional chart

 
Airport distance calculator
Flying to St Elmo Airport? Find the distance to fly.

From to 2R5

Sunrise and sunset
Times for 31-Oct-2020
 Local
(UTC-5)
 Zulu
(UTC)
Morning civil twilight06:4411:44
Sunrise07:0912:09
Sunset18:0523:05
Evening civil twilight18:3023:30

Current date and time
Zulu (UTC)  31-Oct-2020 23:32:48
Local (UTC-5)  31-Oct-2020 18:32:48
 
METAR
KMOB 
11nm N 
312256Z 00000KT 10SM CLR 18/13 A3016 RMK AO2 SLP213 T01780133
KBFM 
13nm NE 
312253Z AUTO 00000KT 10SM CLR 19/14 A3017 RMK AO2 SLP216 T01890144
KPQL 
14nm W 
312253Z AUTO 00000KT 10SM CLR 19/16 A3016 RMK AO2 SLP213 T01890156
KCQF 
21nm E 
312315Z AUTO 00000KT 10SM SCT042 17/13 A3016 RMK AO2
TAF
KMOB 
11nm N 
311720Z 3118/0118 VRB03KT P6SM SCT030 FM312100 VRB03KT P6SM SKC FM011500 35010KT P6SM SKC
KBFM 
13nm NE 
311720Z 3118/0118 VRB03KT P6SM SCT035 FM312100 00000KT P6SM SKC FM011500 35010KT P6SM SKC
NOTAMs
Click for the latest NOTAMs
NOTAMs are issued by the DoD/FAA and will open in a separate window not controlled by AirNav.

 

 
 

Would you like to see your business listed on this page?

 If your business provides an interesting product or service to pilots, flight crews, aircraft, or users of the St Elmo Airport, you should consider listing it here.  To start the listing process, click on the button below
 
Add a business
 

Other Pages about St Elmo Airport

Update a link
 
Copyright © AirNav, LLC. All rights reserved. Privacy Policy  Contact